Погода Богородское

Погода Богородское : погода сейчас, прогноз погоды и архив. Всё, что Вы хотите узнать о погоде Богородское!

Поиск расширенной информации на нашем сайте:

Другие новости

Новости СМИ2

Главная страница сайта

Новости сайта

03.07.2017

Напоминаем, что на нашем специализированном сайте Метеоцентр.Азия вы можете получить высокодетализированные автоматические прогнозы погоды по пунктам России, СНГ и мира в авиационном формате (включающие направление и скорость ветра, видимость, явления погоды, количество и форму облачности, нижнюю и верхнюю границу облачности).


Погода Богородское - сегодня

Время (UTC), дата Ветер
(°,м/с) 
Видим.   Явления Облачность Т
(°С)
Тd
(°С)
f(%) Тe
(°С)
Pmin
(гПа)
dP
(гПа)
Po
(мм)
O2
(г/м3)
Тmin Tmax R s Состояние
почвы
03 18.02.18 170 (Ю) 20000 м    10/0 средняя, верхняя 
[Ac lent|Cs]
-19.3 -25.5 58 -22  1016.5  -0.7  759  331           
06 18.02.18 170 (Ю) 20000 м    10/0 средняя, верхняя 
[As trans|Ci fib]
-15.5 -23.7 49 -16  1015.1  -1.3  758  325           
12 18.02.18 тихо ()   20000 м    10/0 средняя 
[As op]
-20 -23.4 74 -20  1015  0.1  758  331           
15 18.02.18 тихо ()   20000 м    ясно 
-23.4 -26.1 78 -23  1014.5  -0.5  757  336           
18 18.02.18 330 (СЗ) 20000 м    ясно 
-25.6 -28.9 74 -26  1014.4  0.1  757  339           
00 19.02.18 тихо ()   20000 м    4/0 средняя 
[Ac lent]
-19.9 -23.4 74 -20  1013.3  -0.5  756  330  -27.8         
03 19.02.18 160 (Ю) 20000 м    5/0 средняя 
[Ac trans]
-18.4 -24.4 59 -21  1011.9  -1.4  755  328           
06 19.02.18 170 (Ю) 20000 м    3/0 средняя 
[Ac trans]
-16.8 -23.6 56 -19  1010.7  -1.1  755  326           
12 19.02.18 090 (В) 20000 м    ясно 
-22.3 -25.5 75 -23  1011.3  0.1  755  333           
15 19.02.18 тихо ()   20000 м    ясно 
-24.5 -27.7 75 -25  1010.8  -0.6  754  336           
18 19.02.18 010 (С) 20000 м    ясно 
-26.6 -30 73 -27  1010.3  -0.5  754  339           
00 20.02.18 тихо ()   20000 м    8/0 верхняя 
[Ci fib]
-22.8 -26.2 74 -23  1010.2  0.3  754  333  -28.2         
03 20.02.18 010 (С) 20000 м    10/0 верхняя 
[Ci fib]
-15.8 -24.8 46 -21  1009.3  -0.7  754  324           
06 20.02.18 010 (С) 20000 м    9/0 верхняя 
[Ci fib]
-15.2 -26.3 38 -20  1008.9  -0.4  753  323           
12 20.02.18 330 (СЗ) 20000 м    10/0 средняя, верхняя 
[Ac As|Ci fib]
-23.3 -27 72 -24  1011.5  755  334           
15 20.02.18 050 (СВ) 20000 м    8/0 средняя, верхняя 
[Ac As|Ci fib]
-24.3 -28.1 71 -25  1011.6  0.1  755  336           
18 20.02.18 360 (С) 20000 м    5/0 верхняя 
[Ci fib]
-26.9 -30.2 73 -28  1011.7  0.1  755  339           
00 21.02.18 тихо ()   20000 м    4/0 средняя, верхняя 
[Ac lent|Ci fib]
-25.1 -29.2 69 -25  1012.3  0.6  756  337           
03 21.02.18 160 (Ю) 20000 м    6/1 600 м средняя, верхняя 
[Sc|Ac trans|Ci fib]
-18.9 -24.3 62 -19  1011.8  -0.5  755  329           
06 21.02.18 170 (Ю) 20000 м    8/3 600 м средняя, верхняя 
[Sc|Ac trans|Ci fib]
-15.9 -23.2 53 -16  1011.4  -0.3  755  325           
12 21.02.18 тихо ()   20000 м    ясно 
-23.6 -27.1 73 -24  1014.3  1.3  757  336           
15 21.02.18 тихо ()   20000 м    ясно 
-24.6 -28.3 71 -25  1014.4  0.1  757  337           
18 21.02.18 360 (С) 20000 м    ясно 
-27.7 -31.1 73 -31  1014.8  0.3  758  342           
00 22.02.18 190 (Ю) 20000 м    3/0 верхняя 
[Cs]
-25.8 -29.9 69 -26  1016.8  1.5  759  340           
03 22.02.18 160 (Ю) 20000 м    8/0 средняя, верхняя 
[Ac trans|Cs]
-19.9 -26.1 58 -20  1016.4  -0.3  759  331           
Время (UTC), дата Ветер
(°,м/с) 
Видим.   Явления Облачность Т
(°С)
Тd
(°С)
f(%) Тe
(°С)
Pmin
(гПа)
dP
(гПа)
Po
(мм)
O2
(г/м3)
Тmin Tmax R s Состояние
почвы

Для получения пояснительной информации подведите курсор к названию столбца.

ПОГОДА Богородское - архив

Всё, что Вы хотите узнать о погоде Богородское - удобно и подробно!

Выберите нужную дату (начиная с 1 января 2015* года) и нажмите кнопку "Найти".
Будут отображены архивные сводки погоды по пункту Богородское, начиная с указанной даты.


Отображать данные в формате CSV (для использования в таблицах Excel)


Внимание! Наш архив погоды предназначен исключительно для личного некоммерческого использования в познавательных целях. Если Вам необходимы официальные справки о состоянии погоды (для производственных, юридических, коммерческих и т.п. целей), обращайтесь в органы Росгидромета.

*Примечание: данная дата относится к архиву по метеостанциям СССР (Россия, СНГ, Балтия).
Архив по метеостанциям Зарубежной Европы и Азии (кроме Китая) хранится 10 дней, по другим регионам земного шара (Китай, Африка, Америка, Австралия, Океания) - 1 день.

Богородское - район местоположения метеостанции


Название, широта, долгота, высота метеостанции:
Богородское 52.4°ш. 140.5°д. 35 м над ур. моря [Российская Федерация]

Дополнительная информация

В oтличие oт бoльшинства пoгoдных сайтoв мы публикуем пoдрoбную метеoинфoрмацию в детальнoм прoфессиoнальнoм фoрмате.

Характеристики температуры и влажнoсти вoздуха измеряются на высoте 2 м в тени вдали oт зданий и деревьев.
Скoрoсть ветра измеряется на высoте 10 м (на урoвне рoста челoвека скoрoсть ветра ниже в 1.5-2 раза). Если метеoстанция нахoдится в гoрoде или в лесу, тo скoрoсть ветра занижена на 2-4 м/с пo сравнению с oткрытым местoм. Скoрoсть ветра над акватoриями крупных рек и oзёр, а также на вершинах хoлмoв на 2-5 м/с выше, чем в oбычных услoвиях.
Атмoсфернoе давление в разных тoчках местнoсти мoжет значительнo oтличаться oт давления на метеoстанции, в зависимoсти oт услoвий рельефа (при пoдъёме на 10 м давление пoнижается примернo на 1 мм рт.ст.).